Location: Anumalkud?ru
(16.4847°N, 80.6636°E)
Time: 23:14:24
(UTC+00:00)

Okean 2 - Pass Details

Date: 11 April 2026
Orbit: 512 x 523 km, 82.5° (Epoch: 9 May)

Event Time Altitude Azimuth Distance (km) Brightness Sun altitude
Rises 13:15:45 0° 348° (NNW) 2,619 7.1 -6.4°
Reaches altitude 10° 13:17:55 10° 343° (NNW) 1,731 6.3 -7.0°
Maximum altitude 13:21:36 50° 267° (W) 656 4.2 -7.8°
Drops below altitude 10° 13:25:16 10° 191° (S) 1,725 5.9 -8.7°
Sets 13:27:25 0° 186° (S) 2,610 6.7 -9.2°
